Location: Appletree Creek
(38.7363°N, 122.6833°W)
Time: 09:10:47
(UTC+00:00)

Cosmos 1733 Rocket - Pass Details

Date: 18 September 2020
Orbit: 602 x 629 km, 82.5° (Epoch: 21 October)

Event Time Altitude Azimuth Distance (km) Brightness Sun altitude
Rises 13:09:41 0° 352° (N) 2,884 6.5 -9.7°
Reaches altitude 10° 13:11:55 10° 353° (N) 1,971 5.7 -9.3°
Maximum altitude 13:16:17 89° 80° (E) 612 3.0 -8.4°
Drops below altitude 10° 13:20:35 10° 174° (S) 1,943 5.6 -7.6°
Sets 13:22:46 0° 174° (S) 2,840 6.4 -7.2°
